This demonstration page uses our WeatherBlox Daily Observations layout. Learn more.

Left ArrowRight Arrow

Hourly Observations for October 7, 2022

Temp ( °F °C ) Dew Point ( °F °C ) Humidity (%) Winds ( mph kmh ) Pressure ( in mb ) Visibility ( mi km ) Precip ( " mm )
12:53 am 00:53 Clear 44 6.7 30 -1.1 57 57 undefined N/A 30.44 1031 10 16 0.00 0.00
1:53 am 01:53 Mostly Clear 42 5.6 31 -0.6 64 64 undefined N/A 30.47 1032 10 16 0.00 0.00
2:53 am 02:53 Mostly Cloudy 43 6.1 33 0.6 68 68 undefined N/A 30.49 1032 10 16 0.00 0.00
3:53 am 03:53 Cloudy with Light Rain 42 5.6 38 3.3 85 85 undefined N/A 30.48 1032 9 14 0.04 1.02
4:53 am 04:53 Cloudy with Light Rain 42 5.6 38 3.3 85 85 undefined N/A 30.51 1033 9 14 0.03 0.76
5:53 am 05:53 Cloudy 41 5 38 3.3 89 89 undefined N/A 30.53 1034 10 16 0.07 1.78
6:53 am 06:53 Cloudy 42 5.6 38 3.3 85 85 undefined N/A 30.54 1034 10 16 0.01 0.13
7:53 am 07:53 Cloudy with Light Rain 41 5 37 2.8 86 86 undefined N/A 30.54 1034 10 16 0.01 0.25
8:53 am 08:53 Cloudy 42 5.6 37 2.8 82 82 undefined N/A 30.56 1035 10 16 0.01 0.13
9:53 am 09:53 Cloudy 43 6.1 36 2.2 76 76 undefined N/A 30.58 1036 10 16 0.01 0.13
10:53 am 10:53 Cloudy 44 6.7 35 1.7 70 70 undefined N/A 30.59 1036 10 16 0.01 0.13
11:53 am 11:53 Cloudy 46 7.8 33 0.6 60 60 undefined N/A 30.59 1036 10 16 0.00 0.00
12:53 pm 12:53 Mostly Cloudy 48 8.9 32 0 54 54 undefined N/A 30.58 1036 10 16 0.00 0.00
1:53 pm 13:53 Cloudy 49 9.4 32 0 52 52 undefined N/A 30.56 1035 10 16 0.00 0.00
2:53 pm 14:53 Cloudy 51 10.6 29 -1.7 42 42 undefined N/A 30.54 1034 10 16 0.00 0.00
3:53 pm 15:53 Mostly Cloudy 51 10.6 28 -2.2 41 41 undefined N/A 30.52 1034 10 16 0.00 0.00
4:53 pm 16:53 Partly Cloudy 50 10 27 -2.8 40 40 undefined N/A 30.51 1033 10 16 0.00 0.00
5:53 pm 17:53 Cloudy 50 10 30 -1.1 46 46 undefined N/A 30.50 1033 10 16 0.00 0.00
6:53 pm 18:53 Cloudy 49 9.4 33 0.6 54 54 undefined N/A 30.49 1033 10 16 0.00 0.00
7:53 pm 19:53 Mostly Cloudy 46 7.8 33 0.6 60 60 undefined N/A 30.50 1033 10 16 0.00 0.00
8:53 pm 20:53 Cloudy 46 7.8 34 1.1 63 63 undefined N/A 30.51 1033 10 16 0.00 0.00
9:53 pm 21:53 Mostly Cloudy 43 6.1 34 1.1 70 70 undefined N/A 30.53 1034 10 16 0.00 0.00
10:53 pm 22:53 Clear 40 4.4 33 0.6 76 76 undefined N/A 30.54 1034 10 16 0.00 0.00
11:53 pm 23:53 Partly Cloudy 38 3.3 32 0 79 79 undefined N/A 30.54 1034 10 16 0.00 0.00

Powered by AerisWeather